Time,TemperatureF,DewpointF,PressureIn,WindDirection,WindDirectionDegrees,WindSpeedMPH,WindSpeedGustMPH,Humidity,HourlyPrecipIn,Conditions,Clouds,dailyrainin,SoftwareType,DateUTC
2013-10-11 00:03:00,61.5,52.8,28.85,South,180,5.6,5.8,73,0.00,,CLR,0.00,VWS V14.01,2013-10-11 05:03:00,
2013-10-11 00:08:00,61.9,53.1,28.85,SSW,202,3.8,7.6,73,0.00,,CLR,0.00,VWS V14.01,2013-10-11 05:08:00,
2013-10-11 00:13:00,61.9,53.1,28.85,South,180,2.9,7.6,73,0.00,,CLR,0.00,VWS V14.01,2013-10-11 05:13:00,
2013-10-11 00:18:00,62.1,53.3,28.85,South,180,4.0,7.8,73,0.00,,CLR,0.00,VWS V14.01,2013-10-11 05:18:00,
2013-10-11 00:23:00,62.2,53.5,28.85,SSW,202,3.1,7.8,73,0.00,,CLR,0.00,VWS V14.01,2013-10-11 05:23:00,
2013-10-11 00:28:00,62.4,53.7,28.85,South,180,4.0,8.5,73,0.00,,CLR,0.00,VWS V14.01,2013-10-11 05:28:00,
2013-10-11 00:33:00,62.2,53.5,28.85,South,180,6.0,6.0,73,0.00,,CLR,0.00,VWS V14.01,2013-10-11 05:33:00,
2013-10-11 00:38:00,62.4,53.7,28.85,South,180,5.8,7.6,73,0.00,,CLR,0.00,VWS V14.01,2013-10-11 05:38:00,
2013-10-11 00:43:00,62.4,53.7,28.85,SSW,202,4.9,7.6,73,0.00,,CLR,0.00,VWS V14.01,2013-10-11 05:43:00,
2013-10-11 00:49:00,62.2,53.5,28.85,South,180,6.0,7.4,73,0.00,,CLR,0.00,VWS V14.01,2013-10-11 05:49:00,
2013-10-11 00:54:00,62.1,53.3,28.85,South,180,2.9,7.4,73,0.00,,CLR,0.00,VWS V14.01,2013-10-11 05:54:00,
2013-10-11 00:59:00,61.9,53.5,28.85,South,180,3.1,7.4,74,0.00,,CLR,0.00,VWS V14.01,2013-10-11 05:59:00,
2013-10-11 01:04:00,61.7,53.7,28.85,South,180,3.8,4.7,75,0.00,,CLR,0.00,VWS V14.01,2013-10-11 06:04:00,
2013-10-11 01:09:00,61.3,53.4,28.85,South,180,2.5,4.7,75,0.00,,CLR,0.00,VWS V14.01,2013-10-11 06:09:00,
2013-10-11 01:14:00,61.3,53.7,28.85,SSE,158,2.9,4.9,76,0.00,,CLR,0.00,VWS V14.01,2013-10-11 06:14:00,
2013-10-11 01:19:00,61.0,53.7,28.85,South,180,1.1,4.3,77,0.00,,CLR,0.00,VWS V14.01,2013-10-11 06:19:00,
2013-10-11 01:24:00,61.0,53.7,28.85,SSE,158,3.1,4.9,77,0.00,,CLR,0.00,VWS V14.01,2013-10-11 06:24:00,
2013-10-11 01:29:00,60.8,53.5,28.85,South,180,3.4,5.6,77,0.00,,CLR,0.00,VWS V14.01,2013-10-11 06:29:00,
2013-10-11 01:34:00,60.6,54.1,28.85,South,180,2.0,4.7,79,0.00,,CLR,0.00,VWS V14.01,2013-10-11 06:34:00,
2013-10-11 01:39:00,60.4,53.9,28.85,SW,225,1.6,4.9,79,0.00,,CLR,0.00,VWS V14.01,2013-10-11 06:39:00,
2013-10-11 01:44:00,60.4,54.2,28.85,SE,135,2.7,5.6,80,0.00,,CLR,0.00,VWS V14.01,2013-10-11 06:44:00,
2013-10-11 01:50:00,60.1,53.9,28.85,South,180,0.0,4.9,80,0.00,,CLR,0.00,VWS V14.01,2013-10-11 06:50:00,
2013-10-11 01:55:00,60.1,54.2,28.85,SE,135,2.7,4.9,81,0.00,,CLR,0.00,VWS V14.01,2013-10-11 06:55:00,
2013-10-11 02:00:00,60.1,54.2,28.85,South,180,1.3,4.9,81,0.00,,CLR,0.00,VWS V14.01,2013-10-11 07:00:00,
2013-10-11 02:05:00,60.1,54.6,28.85,South,180,2.0,4.0,82,0.00,,CLR,0.00,VWS V14.01,2013-10-11 07:05:00,
2013-10-11 02:10:00,59.9,54.1,28.85,ESE,112,1.6,4.0,81,0.00,,CLR,0.00,VWS V14.01,2013-10-11 07:10:00,
2013-10-11 02:15:00,60.1,54.6,28.85,South,180,3.4,3.4,82,0.00,,CLR,0.00,VWS V14.01,2013-10-11 07:15:00,
2013-10-11 02:20:00,60.1,54.6,28.85,SSW,202,2.7,4.0,82,0.00,,CLR,0.00,VWS V14.01,2013-10-11 07:20:00,
2013-10-11 02:25:00,60.3,54.8,28.85,SE,135,2.9,6.9,82,0.00,,CLR,0.00,VWS V14.01,2013-10-11 07:25:00,
2013-10-11 02:31:00,60.4,54.9,28.85,SSE,158,2.7,6.3,82,0.00,,CLR,0.00,VWS V14.01,2013-10-11 07:31:00,
2013-10-11 02:36:00,60.3,54.8,28.85,South,180,5.4,6.3,82,0.00,,CLR,0.00,VWS V14.01,2013-10-11 07:36:00,
2013-10-11 02:41:00,60.3,54.8,28.85,SSE,158,2.7,6.3,82,0.00,,FEW200,0.00,VWS V14.01,2013-10-11 07:41:00,
2013-10-11 02:46:00,60.1,54.6,28.85,South,180,2.7,3.6,82,0.00,,FEW200,0.00,VWS V14.01,2013-10-11 07:46:00,
2013-10-11 02:51:00,59.7,54.2,28.85,SSW,202,0.0,5.6,82,0.00,,FEW200,0.00,VWS V14.01,2013-10-11 07:51:00,
2013-10-11 02:56:00,59.9,54.7,28.85,South,180,5.6,7.6,83,0.00,,FEW200,0.00,VWS V14.01,2013-10-11 07:56:00,
2013-10-11 03:01:00,60.3,55.1,28.85,South,180,5.6,5.6,83,0.00,,FEW200,0.00,VWS V14.01,2013-10-11 08:01:00,
2013-10-11 03:06:00,60.3,55.1,28.85,South,180,4.3,6.0,83,0.00,,FEW200,0.00,VWS V14.01,2013-10-11 08:06:00,
2013-10-11 03:11:00,60.1,54.9,28.85,South,180,1.6,6.0,83,0.00,,FEW200,0.00,VWS V14.01,2013-10-11 08:11:00,
2013-10-11 03:16:00,60.3,55.1,28.85,South,180,3.4,6.9,83,0.00,,FEW200,0.00,VWS V14.01,2013-10-11 08:16:00,
2013-10-11 03:21:00,60.1,54.6,28.85,South,180,3.1,6.9,82,0.00,,FEW200,0.00,VWS V14.01,2013-10-11 08:21:00,
2013-10-11 03:26:00,60.1,54.9,28.85,South,180,2.7,7.6,83,0.00,,FEW200,0.00,VWS V14.01,2013-10-11 08:26:00,
2013-10-11 03:31:00,60.1,54.9,28.85,South,180,4.0,5.6,83,0.00,,FEW200,0.00,VWS V14.01,2013-10-11 08:31:00,
2013-10-11 03:36:00,59.9,54.7,28.85,SSE,158,2.0,5.6,83,0.00,,FEW200,0.00,VWS V14.01,2013-10-11 08:36:00,
2013-10-11 03:41:00,59.7,54.6,28.85,South,180,4.3,6.0,83,0.00,,FEW200,0.00,VWS V14.01,2013-10-11 08:41:00,
2013-10-11 03:47:00,59.5,54.4,28.85,South,180,2.5,3.4,83,0.00,,FEW200,0.00,VWS V14.01,2013-10-11 08:47:00,
2013-10-11 03:52:00,59.4,54.5,28.85,SSE,158,1.6,4.9,84,0.00,,FEW200,0.00,VWS V14.01,2013-10-11 08:52:00,
2013-10-11 03:57:00,59.2,54.4,28.85,SSE,158,1.3,4.9,84,0.00,,FEW200,0.00,VWS V14.01,2013-10-11 08:57:00,
2013-10-11 04:02:00,58.8,54.3,28.85,South,180,1.1,2.9,85,0.00,,FEW200,0.00,VWS V14.01,2013-10-11 09:02:00,
2013-10-11 04:07:00,58.5,54.0,28.85,South,180,2.5,3.4,85,0.00,,FEW200,0.00,VWS V14.01,2013-10-11 09:07:00,
2013-10-11 04:12:00,58.3,54.1,28.85,SSE,158,2.0,3.4,86,0.00,,FEW200,0.00,VWS V14.01,2013-10-11 09:12:00,
2013-10-11 04:17:00,57.9,54.1,28.85,SSE,158,3.8,3.8,87,0.00,,FEW200,0.00,VWS V14.01,2013-10-11 09:17:00,
2013-10-11 04:22:00,57.9,54.4,28.85,SSE,158,2.9,4.0,88,0.00,,FEW200,0.00,VWS V14.01,2013-10-11 09:22:00,
2013-10-11 04:27:00,57.9,54.4,28.85,South,180,0.0,4.0,88,0.00,,FEW200,0.00,VWS V14.01,2013-10-11 09:27:00,
2013-10-11 04:32:00,57.6,54.0,28.85,SSE,158,1.6,4.3,88,0.00,,FEW200,0.00,VWS V14.01,2013-10-11 09:32:00,
2013-10-11 04:37:00,57.6,54.3,28.85,SSW,202,3.4,4.3,89,0.00,,FEW200,0.00,VWS V14.01,2013-10-11 09:37:00,
2013-10-11 04:42:00,57.4,54.2,28.85,SSE,158,4.0,4.9,89,0.00,,FEW200,0.00,VWS V14.01,2013-10-11 09:42:00,
2013-10-11 04:47:00,57.6,55.0,28.85,SSE,158,1.1,4.9,91,0.00,,FEW200,0.00,VWS V14.01,2013-10-11 09:47:00,
2013-10-11 04:52:00,57.6,55.0,28.85,SSE,158,3.1,4.9,91,0.00,,FEW200,0.00,VWS V14.01,2013-10-11 09:52:00,
2013-10-11 04:57:00,57.6,55.0,28.85,SSW,202,5.4,5.4,91,0.00,,FEW200,0.00,VWS V14.01,2013-10-11 09:57:00,
2013-10-11 05:02:00,57.6,55.0,28.85,SSE,158,3.4,3.6,91,0.00,,FEW200,0.00,VWS V14.01,2013-10-11 10:02:00,
2013-10-11 05:07:00,57.2,54.3,28.85,South,180,7.2,7.2,90,0.00,,FEW200,0.00,VWS V14.01,2013-10-11 10:07:00,
2013-10-11 05:12:00,57.4,54.8,28.85,South,180,3.6,7.2,91,0.00,,FEW200,0.00,VWS V14.01,2013-10-11 10:12:00,
2013-10-11 05:17:00,57.2,54.6,28.85,South,180,1.6,4.0,91,0.00,,FEW200,0.00,VWS V14.01,2013-10-11 10:17:00,
2013-10-11 05:22:00,57.4,54.8,28.85,South,180,2.5,4.9,91,0.00,,FEW200,0.00,VWS V14.01,2013-10-11 10:22:00,
2013-10-11 05:27:00,57.6,55.3,28.85,SSE,158,2.9,5.8,92,0.00,,FEW200,0.00,VWS V14.01,2013-10-11 10:27:00,
2013-10-11 05:33:00,57.4,55.1,28.85,South,180,2.0,3.6,92,0.00,,FEW200,0.00,VWS V14.01,2013-10-11 10:33:00,
2013-10-11 05:38:00,57.6,55.3,28.85,SSW,202,1.6,6.0,92,0.00,,FEW200,0.00,VWS V14.01,2013-10-11 10:38:00,
2013-10-11 05:43:00,57.4,55.1,28.85,South,180,0.9,6.0,92,0.00,,CLR,0.00,VWS V14.01,2013-10-11 10:43:00,
2013-10-11 05:48:00,57.6,55.3,28.88,South,180,2.0,4.3,92,0.00,,CLR,0.00,VWS V14.01,2013-10-11 10:48:00,
2013-10-11 05:53:00,57.6,55.3,28.88,South,180,2.5,5.8,92,0.00,,CLR,0.00,VWS V14.01,2013-10-11 10:53:00,
2013-10-11 05:58:00,57.6,55.3,28.88,South,180,0.9,5.8,92,0.00,,CLR,0.00,VWS V14.01,2013-10-11 10:58:00,
2013-10-11 06:03:00,57.6,55.3,28.85,ESE,112,0.9,6.0,92,0.00,,CLR,0.00,VWS V14.01,2013-10-11 11:03:00,
2013-10-11 06:08:00,57.4,55.1,28.85,SSW,202,3.4,6.0,92,0.00,,CLR,0.00,VWS V14.01,2013-10-11 11:08:00,
2013-10-11 06:13:00,57.6,55.3,28.85,South,180,2.7,6.0,92,0.00,,CLR,0.00,VWS V14.01,2013-10-11 11:13:00,
2013-10-11 06:18:00,57.4,55.1,28.82,SSE,158,3.1,3.1,92,0.00,,CLR,0.00,VWS V14.01,2013-10-11 11:18:00,
2013-10-11 06:23:00,57.4,55.4,28.82,South,180,1.6,5.6,93,0.00,,CLR,0.00,VWS V14.01,2013-10-11 11:23:00,
2013-10-11 06:28:00,57.4,55.1,28.82,ESE,112,2.9,5.6,92,0.00,,CLR,0.00,VWS V14.01,2013-10-11 11:28:00,
2013-10-11 06:33:00,57.6,55.6,28.85,SSW,202,2.0,5.6,93,0.00,,CLR,0.00,VWS V14.01,2013-10-11 11:33:00,
2013-10-11 06:38:00,57.9,55.9,28.85,SSE,158,1.6,5.6,93,0.00,,CLR,0.00,VWS V14.01,2013-10-11 11:38:00,
2013-10-11 06:43:00,57.9,55.9,28.85,SSE,158,2.9,5.6,93,0.00,,CLR,0.00,VWS V14.01,2013-10-11 11:43:00,
2013-10-11 06:48:00,58.1,56.1,28.85,South,180,2.7,5.6,93,0.00,,CLR,0.00,VWS V14.01,2013-10-11 11:48:00,
2013-10-11 06:53:00,58.5,56.5,28.85,South,180,4.0,7.4,93,0.00,,CLR,0.00,VWS V14.01,2013-10-11 11:53:00,
2013-10-11 06:58:00,58.6,56.3,28.85,South,180,2.5,7.4,92,0.00,,CLR,0.00,VWS V14.01,2013-10-11 11:58:00,
2013-10-11 07:03:00,58.8,56.5,28.85,SSW,202,3.1,9.4,92,0.00,,CLR,0.00,VWS V14.01,2013-10-11 12:03:00,
2013-10-11 07:08:00,59.2,56.6,28.85,SE,135,1.6,9.4,91,0.00,,CLR,0.00,VWS V14.01,2013-10-11 12:08:00,
2013-10-11 07:13:00,59.2,56.6,28.85,SSW,202,2.7,9.4,91,0.00,,CLR,0.00,VWS V14.01,2013-10-11 12:13:00,
2013-10-11 07:18:00,59.4,56.7,28.85,South,180,6.7,6.7,91,0.00,,CLR,0.00,VWS V14.01,2013-10-11 12:18:00,
2013-10-11 07:23:00,59.4,56.4,28.85,South,180,4.9,7.2,90,0.00,,CLR,0.00,VWS V14.01,2013-10-11 12:23:00,
2013-10-11 07:28:00,59.4,56.4,28.85,SSW,202,5.6,7.2,90,0.00,,CLR,0.00,VWS V14.01,2013-10-11 12:28:00,
2013-10-11 07:33:00,59.5,56.6,28.82,South,180,5.8,6.3,90,0.00,,CLR,0.00,VWS V14.01,2013-10-11 12:33:00,
2013-10-11 07:38:00,59.7,56.8,28.82,SSE,158,7.4,8.7,90,0.00,,CLR,0.00,VWS V14.01,2013-10-11 12:38:00,
2013-10-11 07:43:00,59.9,57.0,28.82,South,180,3.8,8.7,90,0.00,,CLR,0.00,VWS V14.01,2013-10-11 12:43:00,
2013-10-11 07:48:00,60.4,57.2,28.82,South,180,3.1,6.9,89,0.00,,CLR,0.00,VWS V14.01,2013-10-11 12:48:00,
2013-10-11 07:53:00,60.8,57.2,28.82,South,180,3.8,7.4,88,0.00,,BKN047,0.00,VWS V14.01,2013-10-11 12:53:00,
2013-10-11 07:58:00,61.2,57.3,28.82,SSW,202,6.3,7.4,87,0.00,,BKN047,0.00,VWS V14.01,2013-10-11 12:58:00,
2013-10-11 08:03:00,61.5,57.3,28.82,SSE,158,5.8,6.0,86,0.00,,BKN047,0.00,VWS V14.01,2013-10-11 13:03:00,
2013-10-11 08:09:00,61.9,57.7,28.82,South,180,5.8,8.1,86,0.00,,BKN047,0.00,VWS V14.01,2013-10-11 13:09:00,
2013-10-11 08:14:00,62.2,57.7,28.82,ESE,112,5.6,8.1,85,0.00,,BKN047,0.00,VWS V14.01,2013-10-11 13:14:00,
2013-10-11 08:19:00,62.8,57.5,28.82,SSW,202,4.0,7.6,83,0.00,,BKN047,0.00,VWS V14.01,2013-10-11 13:19:00,
2013-10-11 08:24:00,63.1,57.9,28.82,South,180,7.2,7.6,83,0.00,,BKN047,0.00,VWS V14.01,2013-10-11 13:24:00,
2013-10-11 08:29:00,63.5,57.9,28.82,ENE,68,4.0,7.6,82,0.00,,BKN047,0.00,VWS V14.01,2013-10-11 13:29:00,
2013-10-11 08:34:00,63.9,57.9,28.82,SSE,158,3.6,7.4,81,0.00,,BKN047,0.00,VWS V14.01,2013-10-11 13:34:00,
2013-10-11 08:39:00,64.4,58.5,28.82,SSW,202,1.1,7.4,81,0.00,,BKN047,0.00,VWS V14.01,2013-10-11 13:39:00,
2013-10-11 08:44:00,64.8,58.5,28.82,South,180,2.9,7.4,80,0.00,,FEW070,0.00,VWS V14.01,2013-10-11 13:44:00,
2013-10-11 08:49:00,65.1,58.5,28.82,SSW,202,4.3,8.5,79,0.00,,FEW070,0.00,VWS V14.01,2013-10-11 13:49:00,
2013-10-11 08:54:00,65.7,59.0,28.82,South,180,2.5,8.5,79,0.00,,FEW070,0.00,VWS V14.01,2013-10-11 13:54:00,
2013-10-11 08:59:00,65.8,58.4,28.82,SSE,158,3.8,10.3,77,0.00,,FEW070,0.00,VWS V14.01,2013-10-11 13:59:00,
2013-10-11 09:04:00,66.4,59.0,28.82,South,180,2.9,8.1,77,0.00,,FEW070,0.00,VWS V14.01,2013-10-11 14:04:00,
2013-10-11 09:09:00,66.6,58.8,28.82,South,180,8.7,10.5,76,0.00,,FEW070,0.00,VWS V14.01,2013-10-11 14:09:00,
2013-10-11 09:14:00,66.7,58.6,28.82,SSE,158,5.4,15.9,75,0.00,,FEW070,0.00,VWS V14.01,2013-10-11 14:14:00,
2013-10-11 09:19:00,67.1,59.3,28.79,SSE,158,5.8,12.1,76,0.00,,FEW070,0.00,VWS V14.01,2013-10-11 14:19:00,
2013-10-11 09:24:00,67.6,59.1,28.79,South,180,6.0,12.1,74,0.00,,FEW070,0.00,VWS V14.01,2013-10-11 14:24:00,
2013-10-11 09:29:00,67.6,59.1,28.79,South,180,10.5,14.5,74,0.00,,FEW070,0.00,VWS V14.01,2013-10-11 14:29:00,
2013-10-11 09:34:00,68.2,59.6,28.79,WSW,248,5.8,11.0,74,0.00,,FEW070,0.00,VWS V14.01,2013-10-11 14:34:00,
2013-10-11 09:39:00,68.5,59.5,28.79,South,180,8.5,13.6,73,0.00,,FEW070,0.00,VWS V14.01,2013-10-11 14:39:00,
2013-10-11 09:44:00,68.7,59.3,28.79,SSE,158,11.9,13.6,72,0.00,,FEW100,0.00,VWS V14.01,2013-10-11 14:44:00,
2013-10-11 09:49:00,69.3,60.2,28.79,SSW,202,2.7,12.5,73,0.00,,FEW100,0.00,VWS V14.01,2013-10-11 14:49:00,
2013-10-11 09:54:00,69.1,59.7,28.79,South,180,5.6,12.5,72,0.00,,FEW100,0.00,VWS V14.01,2013-10-11 14:54:00,
2013-10-11 09:59:00,69.4,59.6,28.79,South,180,7.6,12.5,71,0.00,,FEW100,0.00,VWS V14.01,2013-10-11 14:59:00,
2013-10-11 10:04:00,69.8,60.0,28.79,SSE,158,7.8,14.3,71,0.00,,FEW100,0.00,VWS V14.01,2013-10-11 15:04:00,
2013-10-11 10:09:00,69.4,60.0,28.79,SSE,158,4.3,14.3,72,0.00,,FEW100,0.00,VWS V14.01,2013-10-11 15:09:00,
2013-10-11 10:14:00,69.1,59.7,28.79,South,180,4.7,14.3,72,0.00,,FEW100,0.00,VWS V14.01,2013-10-11 15:14:00,
2013-10-11 10:19:00,69.6,60.6,28.79,SSW,202,5.8,9.8,73,0.00,,FEW100,0.00,VWS V14.01,2013-10-11 15:19:00,
2013-10-11 10:24:00,69.4,60.0,28.79,SSW,202,3.6,10.5,72,0.00,,FEW100,0.00,VWS V14.01,2013-10-11 15:24:00,
2013-10-11 10:29:00,69.8,60.4,28.79,SSE,158,3.4,12.1,72,0.00,,FEW100,0.00,VWS V14.01,2013-10-11 15:29:00,
2013-10-11 10:35:00,70.2,60.7,28.76,SE,135,4.9,11.0,72,0.00,,FEW100,0.00,VWS V14.01,2013-10-11 15:35:00,
2013-10-11 10:40:00,70.9,61.8,28.76,South,180,3.6,12.3,73,0.00,,FEW100,0.00,VWS V14.01,2013-10-11 15:40:00,
2013-10-11 10:45:00,70.5,61.1,28.76,SW,225,6.3,12.3,72,0.00,,BKN130,0.00,VWS V14.01,2013-10-11 15:45:00,
2013-10-11 10:50:00,70.3,60.9,28.76,South,180,6.3,12.3,72,0.00,,BKN130,0.00,VWS V14.01,2013-10-11 15:50:00,
2013-10-11 10:55:00,70.3,60.9,28.76,South,180,8.5,12.8,72,0.00,,BKN130,0.00,VWS V14.01,2013-10-11 15:55:00,
2013-10-11 11:00:00,70.9,62.2,28.76,South,180,3.8,3.8,74,0.00,,BKN130,0.00,VWS V14.01,2013-10-11 16:00:00,
2013-10-11 11:05:00,70.5,61.1,28.76,East,90,3.8,14.3,72,0.00,,BKN130,0.00,VWS V14.01,2013-10-11 16:05:00,
2013-10-11 11:10:00,70.5,61.8,28.76,SE,135,1.3,14.3,74,0.00,,BKN130,0.00,VWS V14.01,2013-10-11 16:10:00,
2013-10-11 11:15:00,70.0,61.7,28.76,SE,135,5.8,5.8,75,0.00,,BKN130,0.00,VWS V14.01,2013-10-11 16:15:00,
2013-10-11 11:20:00,70.0,61.7,28.76,SSW,202,6.7,13.0,75,0.00,,BKN130,0.00,VWS V14.01,2013-10-11 16:20:00,
2013-10-11 11:25:00,70.2,61.9,28.76,SSE,158,7.8,13.0,75,0.00,,BKN130,0.00,VWS V14.01,2013-10-11 16:25:00,
2013-10-11 11:30:00,70.5,62.6,28.76,SSW,202,5.8,7.2,76,0.00,,BKN130,0.00,VWS V14.01,2013-10-11 16:30:00,
2013-10-11 11:35:00,70.5,62.2,28.76,SE,135,9.8,12.3,75,0.00,,BKN130,0.00,VWS V14.01,2013-10-11 16:35:00,
2013-10-11 11:40:00,70.7,63.1,28.76,SSE,158,5.8,12.5,77,0.00,,BKN130,0.00,VWS V14.01,2013-10-11 16:40:00,
2013-10-11 11:45:00,71.4,64.2,28.76,NNE,22,3.4,7.8,78,0.00,,BKN130,0.00,VWS V14.01,2013-10-11 16:45:00,
2013-10-11 11:50:00,71.8,63.4,28.79,South,180,8.1,12.3,75,0.00,,BKN130,0.00,VWS V14.01,2013-10-11 16:50:00,
2013-10-11 11:55:00,72.3,64.0,28.79,SE,135,2.5,12.3,75,0.00,,BKN130,0.00,VWS V14.01,2013-10-11 16:55:00,
2013-10-11 12:00:00,72.7,63.9,28.79,South,180,9.6,9.6,74,0.00,,BKN130,0.00,VWS V14.01,2013-10-11 17:00:00,
2013-10-11 12:05:00,73.0,63.5,28.82,SSW,202,14.1,14.1,72,0.00,,BKN130,0.00,VWS V14.01,2013-10-11 17:05:00,
2013-10-11 12:10:00,73.0,63.1,28.82,South,180,7.8,14.1,71,0.00,,BKN130,0.00,VWS V14.01,2013-10-11 17:10:00,
2013-10-11 12:15:00,73.4,63.0,28.82,SSW,202,9.6,12.8,70,0.00,,BKN130,0.00,VWS V14.01,2013-10-11 17:15:00,
2013-10-11 12:20:00,73.8,63.8,28.79,SE,135,6.0,12.8,71,0.00,,BKN130,0.00,VWS V14.01,2013-10-11 17:20:00,
2013-10-11 12:25:00,73.9,63.5,28.79,NW,315,4.3,13.9,70,0.00,,BKN130,0.00,VWS V14.01,2013-10-11 17:25:00,
2013-10-11 12:30:00,74.1,63.7,28.79,South,180,3.6,8.7,70,0.00,,BKN130,0.00,VWS V14.01,2013-10-11 17:30:00,
2013-10-11 12:35:00,73.8,63.4,28.82,South,180,4.7,16.6,70,0.00,,BKN130,0.00,VWS V14.01,2013-10-11 17:35:00,
2013-10-11 12:40:00,73.4,63.4,28.82,SW,225,3.4,16.6,71,0.00,,BKN130,0.00,VWS V14.01,2013-10-11 17:40:00,
2013-10-11 12:45:00,73.2,63.3,28.82,South,180,6.5,8.5,71,0.00,,BKN130,0.00,VWS V14.01,2013-10-11 17:45:00,
2013-10-11 12:50:00,73.0,63.1,28.79,SW,225,7.2,11.9,71,0.00,,BKN130,0.00,VWS V14.01,2013-10-11 17:50:00,
2013-10-11 12:55:00,73.0,63.5,28.79,SSE,158,4.3,11.9,72,0.00,,BKN130,0.00,VWS V14.01,2013-10-11 17:55:00,
2013-10-11 13:00:00,73.0,63.1,28.79,South,180,5.6,12.1,71,0.00,,BKN130,0.00,VWS V14.01,2013-10-11 18:00:00,
2013-10-11 13:06:00,73.0,63.5,28.79,NE,45,4.7,12.1,72,0.00,,BKN130,0.00,VWS V14.01,2013-10-11 18:06:00,
2013-10-11 13:11:00,73.2,64.1,28.79,South,180,2.7,12.1,73,0.00,,BKN130,0.00,VWS V14.01,2013-10-11 18:11:00,
2013-10-11 13:16:00,73.2,63.7,28.79,WSW,248,3.6,7.8,72,0.00,,BKN130,0.00,VWS V14.01,2013-10-11 18:16:00,
2013-10-11 13:21:00,73.0,63.1,28.79,South,180,3.1,9.8,71,0.00,,BKN130,0.00,VWS V14.01,2013-10-11 18:21:00,
2013-10-11 13:26:00,73.0,63.1,28.79,South,180,8.7,12.8,71,0.00,,BKN130,0.00,VWS V14.01,2013-10-11 18:26:00,
2013-10-11 13:31:00,73.0,63.9,28.79,SSW,202,6.5,8.1,73,0.00,,BKN130,0.00,VWS V14.01,2013-10-11 18:31:00,
2013-10-11 13:36:00,73.0,63.9,28.79,ESE,112,3.6,8.7,73,0.00,,BKN130,0.00,VWS V14.01,2013-10-11 18:36:00,
2013-10-11 13:41:00,73.0,63.5,28.79,South,180,11.4,11.4,72,0.00,,OVC030,0.00,VWS V14.01,2013-10-11 18:41:00,
2013-10-11 13:46:00,73.0,63.9,28.79,SW,225,4.7,8.1,73,0.00,,OVC030,0.00,VWS V14.01,2013-10-11 18:46:00,
2013-10-11 13:51:00,73.0,63.9,28.76,South,180,2.0,13.0,73,0.00,,OVC030,0.00,VWS V14.01,2013-10-11 18:51:00,
2013-10-11 13:56:00,73.2,64.1,28.76,SSW,202,5.4,13.2,73,0.00,,OVC030,0.00,VWS V14.01,2013-10-11 18:56:00,
2013-10-11 14:01:00,73.6,64.0,28.76,South,180,2.7,5.8,72,0.00,,OVC030,0.00,VWS V14.01,2013-10-11 19:01:00,
2013-10-11 14:06:00,73.6,64.0,28.76,SSE,158,4.3,10.5,72,0.00,,OVC030,0.00,VWS V14.01,2013-10-11 19:06:00,
2013-10-11 14:11:00,73.4,63.8,28.76,SSW,202,10.7,10.7,72,0.00,,OVC030,0.00,VWS V14.01,2013-10-11 19:11:00,
2013-10-11 14:16:00,73.4,64.2,28.76,SE,135,3.6,4.3,73,0.00,,OVC030,0.00,VWS V14.01,2013-10-11 19:16:00,
2013-10-11 14:21:00,73.4,63.8,28.76,SSE,158,2.7,6.3,72,0.00,,OVC030,0.00,VWS V14.01,2013-10-11 19:21:00,
2013-10-11 14:27:00,73.4,64.2,28.76,WSW,248,2.5,9.4,73,0.00,,OVC030,0.00,VWS V14.01,2013-10-11 19:27:00,
2013-10-11 14:32:00,73.4,63.8,28.76,South,180,6.5,9.6,72,0.00,,OVC030,0.00,VWS V14.01,2013-10-11 19:32:00,
2013-10-11 14:37:00,73.4,63.8,28.76,SSE,158,2.7,9.6,72,0.00,,OVC030,0.00,VWS V14.01,2013-10-11 19:37:00,
2013-10-11 14:42:00,73.4,63.8,28.76,WSW,248,4.9,10.7,72,0.00,,OVC034,0.00,VWS V14.01,2013-10-11 19:42:00,
2013-10-11 14:47:00,73.6,64.0,28.76,SE,135,5.8,8.5,72,0.00,,OVC034,0.00,VWS V14.01,2013-10-11 19:47:00,
2013-10-11 14:52:00,73.8,64.2,28.76,South,180,4.7,9.8,72,0.00,,,0.00,VWS V14.01,2013-10-11 19:52:00,
2013-10-11 14:57:00,73.8,64.2,28.76,SW,225,1.3,16.3,72,0.00,,,0.00,VWS V14.01,2013-10-11 19:57:00,
2013-10-11 15:02:00,73.6,64.4,28.76,WSW,248,2.7,5.8,73,0.00,,,0.00,VWS V14.01,2013-10-11 20:02:00,
2013-10-11 15:07:00,73.6,64.4,28.76,SW,225,3.8,5.8,73,0.00,,,0.00,VWS V14.01,2013-10-11 20:07:00,
2013-10-11 15:12:00,73.4,64.2,28.76,SE,135,3.4,7.4,73,0.00,,,0.00,VWS V14.01,2013-10-11 20:12:00,
2013-10-11 15:17:00,73.6,64.0,28.76,South,180,2.5,8.5,72,0.00,,,0.00,VWS V14.01,2013-10-11 20:17:00,
2013-10-11 15:22:00,73.9,64.8,28.76,South,180,6.0,8.5,73,0.00,,,0.00,VWS V14.01,2013-10-11 20:22:00,
2013-10-11 15:27:00,73.8,64.6,28.76,South,180,2.7,9.8,73,0.00,,,0.00,VWS V14.01,2013-10-11 20:27:00,
2013-10-11 15:32:00,73.6,64.0,28.76,SSW,202,1.6,10.1,72,0.00,,,0.00,VWS V14.01,2013-10-11 20:32:00,
2013-10-11 15:37:00,73.4,64.2,28.76,South,180,1.6,10.1,73,0.00,,,0.00,VWS V14.01,2013-10-11 20:37:00,
2013-10-11 15:42:00,73.2,64.4,28.76,SSE,158,6.5,10.1,74,0.00,,OVC043,0.00,VWS V14.01,2013-10-11 20:42:00,
2013-10-11 15:47:00,73.6,64.8,28.76,East,90,2.5,5.8,74,0.00,,OVC043,0.00,VWS V14.01,2013-10-11 20:47:00,
2013-10-11 15:52:00,73.8,65.0,28.76,SSE,158,3.8,5.8,74,0.00,,OVC043,0.00,VWS V14.01,2013-10-11 20:52:00,
2013-10-11 15:57:00,73.6,64.8,28.76,SSE,158,2.2,6.5,74,0.00,,OVC043,0.00,VWS V14.01,2013-10-11 20:57:00,
2013-10-11 16:02:00,73.6,64.8,28.76,SSW,202,3.8,3.8,74,0.00,,OVC043,0.00,VWS V14.01,2013-10-11 21:02:00,
2013-10-11 16:07:00,73.4,64.6,28.76,ESE,112,3.1,6.5,74,0.00,,OVC043,0.00,VWS V14.01,2013-10-11 21:07:00,
2013-10-11 16:12:00,73.4,64.6,28.76,WNW,292,5.6,6.5,74,0.00,,OVC043,0.00,VWS V14.01,2013-10-11 21:12:00,
2013-10-11 16:17:00,73.2,64.8,28.76,SSE,158,6.3,8.7,75,0.00,,OVC043,0.00,VWS V14.01,2013-10-11 21:17:00,
2013-10-11 16:22:00,73.2,64.8,28.76,ESE,112,2.7,8.7,75,0.00,,OVC043,0.00,VWS V14.01,2013-10-11 21:22:00,
2013-10-11 16:28:00,73.4,65.0,28.76,SSE,158,2.7,8.7,75,0.00,,OVC043,0.00,VWS V14.01,2013-10-11 21:28:00,
2013-10-11 16:33:00,73.4,65.0,28.76,South,180,5.6,6.3,75,0.00,,OVC043,0.00,VWS V14.01,2013-10-11 21:33:00,
2013-10-11 16:38:00,73.8,65.0,28.76,South,180,1.3,8.1,74,0.00,,OVC043,0.00,VWS V14.01,2013-10-11 21:38:00,
2013-10-11 16:43:00,73.8,65.0,28.76,South,180,6.5,8.5,74,0.00,,OVC043,0.00,VWS V14.01,2013-10-11 21:43:00,
2013-10-11 16:48:00,73.9,65.1,28.76,South,180,1.6,4.9,74,0.00,,OVC043,0.00,VWS V14.01,2013-10-11 21:48:00,
2013-10-11 16:53:00,73.8,65.0,28.76,SSW,202,0.9,9.6,74,0.00,,OVC043,0.00,VWS V14.01,2013-10-11 21:53:00,
2013-10-11 16:58:00,73.8,65.0,28.76,SSE,158,2.5,9.6,74,0.00,,OVC043,0.00,VWS V14.01,2013-10-11 21:58:00,
2013-10-11 17:03:00,73.9,65.5,28.76,SSW,202,7.2,7.2,75,0.00,,OVC043,0.00,VWS V14.01,2013-10-11 22:03:00,
2013-10-11 17:08:00,73.9,65.1,28.76,South,180,4.0,7.6,74,0.00,,OVC043,0.00,VWS V14.01,2013-10-11 22:08:00,
2013-10-11 17:13:00,73.9,65.1,28.76,SSW,202,3.1,8.7,74,0.00,,OVC043,0.00,VWS V14.01,2013-10-11 22:13:00,
2013-10-11 17:18:00,73.8,65.0,28.76,SSE,158,5.8,8.5,74,0.00,,OVC043,0.00,VWS V14.01,2013-10-11 22:18:00,
2013-10-11 17:23:00,73.8,65.0,28.76,SSW,202,4.0,8.5,74,0.00,,OVC043,0.00,VWS V14.01,2013-10-11 22:23:00,
2013-10-11 17:28:00,73.8,65.0,28.76,SSE,158,2.7,8.5,74,0.00,,OVC043,0.00,VWS V14.01,2013-10-11 22:28:00,
2013-10-11 17:33:00,73.9,65.1,28.79,SSE,158,3.4,5.4,74,0.00,,OVC043,0.00,VWS V14.01,2013-10-11 22:33:00,
2013-10-11 17:38:00,74.5,65.7,28.79,SE,135,2.7,5.4,74,0.00,,OVC043,0.00,VWS V14.01,2013-10-11 22:38:00,
2013-10-11 17:43:00,74.5,65.3,28.79,SW,225,2.0,7.8,73,0.00,,OVC045,0.00,VWS V14.01,2013-10-11 22:43:00,
2013-10-11 17:48:00,74.3,65.1,28.79,South,180,3.6,3.6,73,0.00,,OVC045,0.00,VWS V14.01,2013-10-11 22:48:00,
2013-10-11 17:54:00,74.1,64.9,28.79,ESE,112,2.9,4.9,73,0.00,,OVC045,0.00,VWS V14.01,2013-10-11 22:54:00,
2013-10-11 17:59:00,73.9,64.8,28.79,SW,225,3.8,7.8,73,0.00,,OVC045,0.00,VWS V14.01,2013-10-11 22:59:00,
2013-10-11 18:04:00,73.9,65.1,28.79,South,180,1.3,6.0,74,0.00,,OVC045,0.00,VWS V14.01,2013-10-11 23:04:00,
2013-10-11 18:09:00,73.9,65.1,28.79,South,180,6.0,8.5,74,0.00,,OVC045,0.00,VWS V14.01,2013-10-11 23:09:00,
2013-10-11 18:14:00,73.8,65.0,28.79,SSW,202,4.9,8.5,74,0.00,,OVC045,0.00,VWS V14.01,2013-10-11 23:14:00,
2013-10-11 18:19:00,73.6,64.8,28.79,SSE,158,3.8,7.4,74,0.00,,OVC045,0.00,VWS V14.01,2013-10-11 23:19:00,
2013-10-11 18:24:00,73.2,64.8,28.79,South,180,2.7,7.4,75,0.00,,OVC045,0.00,VWS V14.01,2013-10-11 23:24:00,
2013-10-11 18:29:00,72.9,64.9,28.79,South,180,3.4,7.4,76,0.00,,OVC045,0.00,VWS V14.01,2013-10-11 23:29:00,
2013-10-11 18:34:00,72.9,65.2,28.79,South,180,3.6,8.1,77,0.00,,OVC045,0.00,VWS V14.01,2013-10-11 23:34:00,
2013-10-11 18:39:00,72.5,64.9,28.79,SW,225,3.8,8.1,77,0.00,,OVC045,0.00,VWS V14.01,2013-10-11 23:39:00,
2013-10-11 18:44:00,72.3,65.1,28.79,South,180,2.7,8.1,78,0.00,,SCT050,0.00,VWS V14.01,2013-10-11 23:44:00,
2013-10-11 18:49:00,72.0,64.7,28.79,SSE,158,4.9,6.5,78,0.00,,SCT050,0.00,VWS V14.01,2013-10-11 23:49:00,
2013-10-11 18:54:00,71.6,64.8,28.79,South,180,1.6,6.5,79,0.00,,SCT050,0.00,VWS V14.01,2013-10-11 23:54:00,
2013-10-11 18:59:00,71.2,64.8,28.79,SSE,158,2.2,6.5,80,0.00,,SCT050,0.00,VWS V14.01,2013-10-11 23:59:00,
2013-10-11 19:04:00,71.4,64.9,28.82,South,180,1.6,8.1,80,0.00,,SCT050,0.00,VWS V14.01,2013-10-12 00:04:00,
2013-10-11 19:09:00,71.4,64.9,28.82,South,180,2.7,8.1,80,0.00,,SCT050,0.00,VWS V14.01,2013-10-12 00:09:00,
2013-10-11 19:14:00,71.2,64.8,28.82,South,180,3.8,8.1,80,0.00,,FEW050,0.00,VWS V14.01,2013-10-12 00:14:00,
2013-10-11 19:19:00,71.2,64.8,28.79,SSW,202,2.0,9.4,80,0.00,,FEW050,0.00,VWS V14.01,2013-10-12 00:19:00,
2013-10-11 19:24:00,71.1,64.9,28.79,SSE,158,5.6,9.4,81,0.00,,FEW050,0.00,VWS V14.01,2013-10-12 00:24:00,
2013-10-11 19:29:00,70.9,64.8,28.79,South,180,2.5,9.4,81,0.00,,FEW050,0.00,VWS V14.01,2013-10-12 00:29:00,
2013-10-11 19:34:00,70.9,64.8,28.79,South,180,3.1,8.1,81,0.00,,FEW050,0.00,VWS V14.01,2013-10-12 00:34:00,
2013-10-11 19:40:00,70.9,64.8,28.79,South,180,8.5,11.0,81,0.00,,FEW050,0.00,VWS V14.01,2013-10-12 00:40:00,
2013-10-11 19:45:00,70.7,64.9,28.79,SSE,158,2.9,11.0,82,0.00,,FEW050,0.00,VWS V14.01,2013-10-12 00:45:00,
2013-10-11 19:50:00,70.7,64.9,28.79,WSW,248,4.0,10.1,82,0.00,,FEW050,0.00,VWS V14.01,2013-10-12 00:50:00,
2013-10-11 19:55:00,70.7,64.9,28.79,South,180,6.5,10.1,82,0.00,,FEW050,0.00,VWS V14.01,2013-10-12 00:55:00,
2013-10-11 20:00:00,70.7,64.9,28.79,SSE,158,5.4,10.1,82,0.00,,FEW050,0.00,VWS V14.01,2013-10-12 01:00:00,
2013-10-11 20:05:00,70.7,64.9,28.79,SSW,202,4.7,8.5,82,0.00,,FEW050,0.00,VWS V14.01,2013-10-12 01:05:00,
2013-10-11 20:10:00,70.5,64.8,28.79,South,180,3.6,8.5,82,0.00,,FEW050,0.00,VWS V14.01,2013-10-12 01:10:00,
2013-10-11 20:15:00,70.3,64.6,28.79,South,180,2.9,4.3,82,0.00,,FEW050,0.00,VWS V14.01,2013-10-12 01:15:00,
2013-10-11 20:20:00,70.2,64.8,28.79,SSW,202,4.7,9.4,83,0.00,,FEW050,0.00,VWS V14.01,2013-10-12 01:20:00,
2013-10-11 20:25:00,70.2,64.8,28.79,SSW,202,5.4,9.4,83,0.00,,FEW050,0.00,VWS V14.01,2013-10-12 01:25:00,
2013-10-11 20:30:00,70.2,64.8,28.79,South,180,2.7,5.4,83,0.00,,FEW050,0.00,VWS V14.01,2013-10-12 01:30:00,
2013-10-11 20:35:00,70.2,64.8,28.76,South,180,5.6,8.5,83,0.00,,FEW050,0.00,VWS V14.01,2013-10-12 01:35:00,
2013-10-11 20:40:00,70.0,64.6,28.76,SSE,158,5.6,8.5,83,0.00,,CLR,0.00,VWS V14.01,2013-10-12 01:40:00,
2013-10-11 20:45:00,70.0,64.9,28.76,SSE,158,4.9,5.4,84,0.00,,CLR,0.00,VWS V14.01,2013-10-12 01:45:00,
2013-10-11 20:50:00,69.8,64.8,28.76,SSE,158,6.3,6.3,84,0.00,,CLR,0.00,VWS V14.01,2013-10-12 01:50:00,
2013-10-11 20:55:00,69.8,65.1,28.76,SSW,202,5.8,7.6,85,0.00,,CLR,0.00,VWS V14.01,2013-10-12 01:55:00,
2013-10-11 21:00:00,70.0,65.3,28.76,SSE,158,4.3,8.1,85,0.00,,CLR,0.00,VWS V14.01,2013-10-12 02:00:00,
2013-10-11 21:06:00,70.0,65.3,28.76,SSW,202,3.4,8.7,85,0.00,,CLR,0.00,VWS V14.01,2013-10-12 02:06:00,
2013-10-11 21:11:00,69.8,65.1,28.76,South,180,5.8,10.1,85,0.00,,CLR,0.00,VWS V14.01,2013-10-12 02:11:00,
2013-10-11 21:16:00,70.0,65.3,28.76,SSE,158,6.5,6.5,85,0.00,,CLR,0.00,VWS V14.01,2013-10-12 02:16:00,
2013-10-11 21:21:00,69.8,65.1,28.79,SSW,202,3.8,7.8,85,0.00,,CLR,0.00,VWS V14.01,2013-10-12 02:21:00,
2013-10-11 21:26:00,69.8,65.1,28.79,SW,225,2.9,7.8,85,0.00,,CLR,0.00,VWS V14.01,2013-10-12 02:26:00,
2013-10-11 21:31:00,69.6,65.2,28.79,South,180,6.5,6.5,86,0.00,,CLR,0.00,VWS V14.01,2013-10-12 02:31:00,
2013-10-11 21:36:00,69.6,65.2,28.79,South,180,6.0,7.2,86,0.00,,CLR,0.00,VWS V14.01,2013-10-12 02:36:00,
2013-10-11 21:41:00,69.6,65.6,28.79,East,90,2.7,7.8,87,0.00,,FEW050,0.00,VWS V14.01,2013-10-12 02:41:00,
2013-10-11 21:46:00,69.6,65.6,28.79,West,270,5.4,7.8,87,0.00,,FEW050,0.00,VWS V14.01,2013-10-12 02:46:00,
2013-10-11 21:51:00,69.4,65.4,28.79,South,180,2.5,7.8,87,0.00,,FEW050,0.00,VWS V14.01,2013-10-12 02:51:00,
2013-10-11 21:56:00,69.6,65.6,28.79,SW,225,4.0,7.8,87,0.00,,FEW050,0.00,VWS V14.01,2013-10-12 02:56:00,
2013-10-11 22:01:00,69.8,65.8,28.79,South,180,3.6,7.8,87,0.00,,FEW050,0.00,VWS V14.01,2013-10-12 03:01:00,
2013-10-11 22:06:00,69.8,65.4,28.79,SSE,158,2.9,7.8,86,0.00,,FEW050,0.00,VWS V14.01,2013-10-12 03:06:00,
2013-10-11 22:11:00,69.8,65.8,28.79,South,180,5.6,7.8,87,0.00,,FEW050,0.00,VWS V14.01,2013-10-12 03:11:00,
2013-10-11 22:16:00,69.6,65.6,28.79,SSW,202,4.0,8.5,87,0.00,,FEW050,0.00,VWS V14.01,2013-10-12 03:16:00,
2013-10-11 22:21:00,69.6,65.6,28.79,NNW,338,2.5,8.5,87,0.00,,FEW050,0.00,VWS V14.01,2013-10-12 03:21:00,
2013-10-11 22:26:00,69.4,65.4,28.79,SW,225,3.1,8.5,87,0.00,,FEW050,0.00,VWS V14.01,2013-10-12 03:26:00,
2013-10-11 22:32:00,69.4,65.7,28.79,SSW,202,1.1,6.0,88,0.00,,FEW050,0.00,VWS V14.01,2013-10-12 03:32:00,
2013-10-11 22:37:00,69.3,65.6,28.79,South,180,6.5,6.5,88,0.00,,FEW050,0.00,VWS V14.01,2013-10-12 03:37:00,
2013-10-11 22:42:00,69.3,65.6,28.79,WNW,292,5.6,8.5,88,0.00,,BKN041,0.00,VWS V14.01,2013-10-12 03:42:00,
2013-10-11 22:47:00,69.1,65.4,28.79,SSW,202,5.6,5.6,88,0.00,,BKN041,0.00,VWS V14.01,2013-10-12 03:47:00,
2013-10-11 22:52:00,68.9,65.5,28.79,South,180,4.0,7.2,89,0.00,,BKN041,0.00,VWS V14.01,2013-10-12 03:52:00,
2013-10-11 22:57:00,68.9,65.5,28.79,SSW,202,4.3,7.2,89,0.00,,BKN041,0.00,VWS V14.01,2013-10-12 03:57:00,
2013-10-11 23:01:00,68.9,65.5,28.79,SSW,202,4.3,4.3,89,0.00,,BKN041,0.00,VWS V14.01,2013-10-12 04:01:00,
2013-10-11 23:02:00,68.9,65.5,28.79,SSW,202,3.6,4.3,89,0.00,,BKN041,0.00,VWS V14.01,2013-10-12 04:02:00,
2013-10-11 23:03:00,68.9,65.5,28.82,SSW,202,4.3,4.3,89,0.00,,BKN041,0.00,VWS V14.01,2013-10-12 04:03:00,
2013-10-11 23:04:00,68.9,65.5,28.82,South,180,2.5,5.6,89,0.00,,BKN041,0.00,VWS V14.01,2013-10-12 04:04:00,
2013-10-11 23:05:00,68.9,65.5,28.82,SSW,202,8.5,8.5,89,0.00,,BKN041,0.00,VWS V14.01,2013-10-12 04:05:00,
2013-10-11 23:07:00,68.9,65.5,28.82,WSW,248,4.3,8.5,89,0.00,,BKN041,0.00,VWS V14.01,2013-10-12 04:07:00,
2013-10-11 23:12:00,68.9,65.5,28.82,West,270,2.0,8.5,89,0.00,,BKN041,0.00,VWS V14.01,2013-10-12 04:12:00,
2013-10-11 23:17:00,68.9,65.5,28.82,WSW,248,2.7,7.8,89,0.00,,BKN041,0.00,VWS V14.01,2013-10-12 04:17:00,
2013-10-11 23:22:00,68.9,65.5,28.82,SW,225,6.3,7.8,89,0.00,,BKN041,0.00,VWS V14.01,2013-10-12 04:22:00,
2013-10-11 23:27:00,68.9,65.5,28.82,South,180,4.3,7.8,89,0.00,,BKN041,0.00,VWS V14.01,2013-10-12 04:27:00,
2013-10-11 23:32:00,69.1,65.7,28.82,South,180,5.6,6.5,89,0.00,,BKN041,0.00,VWS V14.01,2013-10-12 04:32:00,
2013-10-11 23:37:00,69.1,65.7,28.82,South,180,5.4,6.5,89,0.00,,BKN041,0.00,VWS V14.01,2013-10-12 04:37:00,
2013-10-11 23:42:00,69.1,65.7,28.82,South,180,2.9,6.5,89,0.00,,FEW030,0.00,VWS V14.01,2013-10-12 04:42:00,
2013-10-11 23:47:00,68.9,65.5,28.82,SE,135,0.9,2.9,89,0.00,,FEW030,0.00,VWS V14.01,2013-10-12 04:47:00,
2013-10-11 23:52:00,68.5,65.2,28.79,West,270,2.7,2.9,89,0.00,,FEW030,0.00,VWS V14.01,2013-10-12 04:52:00,
2013-10-11 23:57:00,68.2,64.8,28.79,WSW,248,2.9,3.6,89,0.00,,FEW030,0.00,VWS V14.01,2013-10-12 04:57:00,